Location: Camps Bay
(33.9517°S, 18.3844°E)
Time: 13:20:04
(UTC+00:00)

NOSS 3-4 (C) - Pass Details

Date: 18 January 2020
Orbit: 905 x 1307 km, 63.4° (Epoch: 21 February)

Event Time Altitude Azimuth Distance (km) Brightness Sun altitude
Rises 03:21:21 0° 221° (SW) 3,903 6.5 -6.7°
Reaches altitude 10° 03:24:22 10° 229° (SW) 2,876 5.8 -6.1°
Maximum altitude 03:30:15 34° 290° (WNW) 1,583 4.1 -5.1°
Drops below altitude 10° 03:35:42 10° 353° (N) 2,647 5.5 -4.1°
Sets 03:38:23 0° 2° (N) 3,551 6.2 -3.6°
